[[{"header":{"parameterUnit":"m.s-1","parameterCategory":2,"la1":30.2991,"la2":30.254,"lo1":-89.0895,"lo2":-89.0444,"dy":0.0017,"dx":0.0017,"nx":28,"ny":28,"refTime":"2024-07-19T21:00:00:Z","depth":"0","parameterNumber":2,"parameterNumberName":"U-component_of_CURRENTS"},"data":[0,0,0,0,0,0,0,0,0,0,0,0,0,0,0,0,0,0,0,0,0,0,0,0,0,0,0,0,0,0,0,0,0,0,0,0,0,0,0,0,0,0,0,0,0,0,0,0,0,0,0,0,0,0,0,0,0,0,0.3499,0.3499,0,0.3497,0.3497,0.3497,0.3465,0.3465,0.3464,0.3463,0.353,0.3532,0.3535,0,0,0,0,0,0,0,0,0,0,0,0,0,0.3551,0.355,0.3499,0.3499,0.3499,0.3497,0.3497,0.3497,0.3465,0.3464,0.3464,0.3463,0.3529,0.3532,0.3535,0,0,0,0,0,0,0,0,0,0,0,0,0,0.3537,0.355,0.3499,0.3483,0.3482,0.3497,0.3497,0.3497,0.3466,0.3464,0.3463,0.3462,0.3528,0.3532,0.3535,0.3583,0,0,0.3547,0.3549,0,0,0,0,0,0,0,0,0.3537,0.3535,0.3486,0.3484,0.3483,0.348,0.354,0.3529,0.3466,0.3472,0.3463,0.3462,0.3521,0.3525,0.3526,0.3586,0.3589,0.3547,0.355,0.3551,0.3552,0,0,0,0,0,0,0,0.3538,0.3535,0.3498,0.3486,0.3484,0.3502,0.3498,0.3538,0.3504,0.3471,0.3469,0.3469,0.352,0.3522,0.3528,0.359,0.3547,0.3551,0.3553,0.3554,0.3826,0.383,0,0,0,0,0,0,0.3536,0.3536,0.3498,0.3498,0.3508,0.3502,0.3497,0.3482,0.3502,0.3503,0.347,0.3468,0.3516,0.3523,0.353,0.3697,0.3551,0.3555,0.3557,0.3821,0.3827,0.3832,0,0,0,0,0,0,0.3537,0.3532,0.3498,0.3518,0.3515,0.3501,0.3485,0.3483,0.3494,0.3501,0.3503,0.3485,0.3516,0.3525,0.3605,0.3695,0.3556,0.356,0.3815,0.3822,0.3829,0.3961,0,0,0,0,0,0,0.3538,0.3532,0.3532,0.3517,0.3514,0.3535,0.3486,0.3484,0.3496,0.3493,0.3515,0.3518,0.3516,0.36,0.3609,0.3698,0.3563,0.3809,0.3818,0.3827,0.395,0.3972,0.399,0,0,0,0,0,0.354,0.3543,0.3531,0.3528,0.3509,0.3537,0.3539,0.3525,0.3498,0.3526,0.3549,0.3518,0.3666,0.3607,0.3616,0.3708,0.3804,0.3816,0.3826,0.3941,0.3968,0.399,0,0,0,0,0,0,0.3576,0.3539,0.3527,0.352,0.3541,0.3532,0.355,0.3539,0.3574,0.3575,0.3569,0.3578,0.3696,0.3686,0.362,0.3819,0.3736,0.375,0.3821,0.3845,0.3865,0.3903,0.3566,0,0,0,0,0,0.3581,0.3567,0.3559,0.3563,0.3571,0.3565,0.3574,0.3572,0.3593,0.3605,0.3622,0.3666,0.375,0.3778,0.384,0.393,0.3962,0.4003,0.4023,0.4039,0.4082,0.4191,0.4224,0.3868,0.3868,0.3868,0,0,0.3593,0.3577,0.3568,0.3571,0.3576,0.3632,0.3568,0.3598,0.3668,0.3612,0.3711,0.3741,0.3794,0.3913,0.3964,0.3911,0.4165,0.4053,0.4067,0.4102,0.4206,0.424,0.4271,0.3876,0.3875,0.3873,0,0,0.3639,0.3604,0.3622,0.3648,0.3671,0.3683,0.3699,0.3712,0.374,0.3833,0.3837,0.3925,0.4003,0.4079,0.4125,0.4296,0.4277,0.4305,0.4424,0.4529,0.4558,0.4585,0.4688,0.4723,0.4301,0.4301,0.4302,0,0.3673,0.3678,0.3643,0.3695,0.3727,0.3716,0.3783,0.3831,0.3879,0.393,0.3889,0.4071,0.4104,0.4285,0.4351,0.4346,0.4387,0.4317,0.4553,0.458,0.4604,0.4704,0.474,0.4309,0.4308,0.4307,0.4307,0,0.3741,0.3763,0.3785,0.384,0.3883,0.3933,0.399,0.4052,0.4073,0.412,0.4277,0.4324,0.4428,0.4464,0.4464,0.4669,0.4638,0.457,0.4482,0.4648,0.4743,0.4778,0.432,0.4317,0.4315,0.4313,0,0,0.378,0.3821,0.3835,0.388,0.3956,0.4001,0.4135,0.4249,0.4351,0.4413,0.4549,0.47,0.4695,0.4752,0.4759,0.4852,0.5068,0.479,0.4791,0.4878,0.5307,0.509,0.5107,0.502,0.5027,0.5032,0.5308,0,0.3856,0.3947,0.3961,0.409,0.4143,0.4191,0.4319,0.443,0.4517,0.4651,0.473,0.4868,0.4815,0.4869,0.4965,0.5047,0.5165,0.5001,0.5149,0.5155,0.4927,0.5142,0.4815,0.5015,0.5343,0.5348,0.5353,0,0.3923,0.3975,0.4082,0.4195,0.4228,0.4319,0.4496,0.4612,0.4802,0.487,0.5,0.505,0.5241,0.514,0.5385,0.5272,0.533,0.5371,0.538,0.5159,0.5003,0.4903,0.5066,0.4937,0.5406,0.5402,0.5398,0,0.3943,0.4063,0.4141,0.4181,0.4319,0.4398,0.449,0.4675,0.4805,0.5014,0.5127,0.53,0.5415,0.5516,0.5583,0.5513,0.5813,0.5715,0.5591,0.5576,0.5322,0.5271,0.5361,0.592,0.592,0.5919,0.5918,0,0.4,0.4074,0.4153,0.4201,0.4349,0.4426,0.4611,0.4734,0.4935,0.5097,0.5231,0.538,0.5515,0.5664,0.5693,0.5751,0.5907,0.5685,0.5654,0.5357,0.5308,0.5194,0.5141,0.5929,0.5927,0.5925,0.5923,0,0.4035,0.4062,0.417,0.43,0.4352,0.4463,0.4668,0.4804,0.4987,0.5205,0.5282,0.5523,0.5679,0.5781,0.5964,0.589,0.5779,0.5935,0.5571,0.5488,0.5161,0.5125,0.507,0.4933,0.5866,0.5863,0.586,0,0.4052,0.4106,0.424,0.4295,0.4359,0.4516,0.4629,0.4818,0.4949,0.526,0.5357,0.5595,0.5688,0.5873,0.5786,0.5815,0.569,0.5539,0.5337,0.516,0.5103,0.495,0.483,0.5092,0.5083,0.5076,0.507,0,0.4126,0.4166,0.4263,0.435,0.4448,0.459,0.4741,0.4839,0.5047,0.5195,0.5384,0.5485,0.561,0.5451,0.5451,0.5418,0.5217,0.5383,0.5318,0.4621,0.4352,0.4193,0.4913,0.5004,0.5011,0.5016,0.5019,0.5022,0.4183,0.4262,0.4335,0.4417,0.4507,0.4592,0.4618,0.4749,0.4878,0.4947,0.5202,0.5164,0.5137,0.5046,0.4994,0.4674,0.4771,0.4495,0.4517,0.4421,0.4114,0.4677,0.4624,0.4628,0.4632,0.4635,0.4638,0,0.4217,0.4289,0.438,0.4418,0.442,0.4508,0.4621,0.4558,0.4535,0.4638,0.4684,0.4551,0.4357,0.4296,0.4044,0.386,0.3707,0.376,0.3515,0.3481,0.4093,0.3875,0.3507,0.3508,0.3508,0.3508,0.3508,0.3508,0.4235,0.4298,0.4323,0.4277,0.4278,0.4207,0.42,0.4118,0.4108,0.392,0.3758,0.3787,0.3848,0.3689,0.3418,0.332,0.3137,0.2907,0.3049,0.35,0.357,0.3638,0.3423,0.2967,0.2966,0.2224,0.2219,0.2214]},{"header":{"parameterUnit":"m.s-1","parameterCategory":2,"la1":30.2991,"la2":30.254,"lo1":-89.0895,"lo2":-89.0444,"dy":0.0017,"dx":0.0017,"nx":28,"ny":28,"refTime":"2024-07-19T21:00:00:Z","depth":"0","parameterNumber":3,"parameterNumberName":"V-component_of_CURRENTS"},"data":[0,0,0,0,0,0,0,0,0,0,0,0,0,0,0,0,0,0,0,0,0,0,0,0,0,0,0,0,0,0,0,0,0,0,0,0,0,0,0,0,0,0,0,0,0,0,0,0,0,0,0,0,0,0,0,0,0,0,0.0222,0.0222,0,0.0162,0.0161,0.0161,0.0123,0.0123,0.0123,0.0122,0.0057,0.0056,0.0054,0,0,0,0,0,0,0,0,0,0,0,0,0,0.0261,0.026,0.0222,0.0222,0.0221,0.0162,0.0161,0.016,0.0123,0.0123,0.0123,0.0122,0.0058,0.0056,0.0054,0,0,0,0,0,0,0,0,0,0,0,0,0,0.0227,0.026,0.0223,0.0195,0.0192,0.0162,0.0161,0.016,0.0123,0.0123,0.0122,0.0122,0.0058,0.0056,0.0054,0.0046,0,0,0.0047,0.0046,0,0,0,0,0,0,0,0,0.0229,0.0226,0.02,0.0197,0.0193,0.015,0.0151,0.0122,0.0123,0.0149,0.0122,0.0122,0.0088,0.0083,0.0073,0.0043,0.004,0.0046,0.0045,0.0044,0.0043,0,0,0,0,0,0,0,0.0231,0.0228,0.0199,0.0199,0.0195,0.017,0.0166,0.0145,0.0121,0.0147,0.0144,0.0137,0.0086,0.0075,0.0071,0.0039,0.0047,0.0044,0.0043,0.0042,0.0021,0.0022,0,0,0,0,0,0,0.0241,0.023,0.0201,0.0197,0.021,0.017,0.0165,0.0164,0.0121,0.0115,0.0138,0.0136,0.0079,0.0074,0.0068,0.0099,0.0044,0.0042,0.0041,0.0021,0.0022,0.0022,0,0,0,0,0,0,0.0242,0.0239,0.0203,0.0211,0.0205,0.017,0.0169,0.0163,0.0156,0.0114,0.0107,0.0137,0.0079,0.0072,0.006,0.0094,0.0041,0.0039,0.002,0.0021,0.0022,0.0133,0,0,0,0,0,0,0.0244,0.024,0.0243,0.0213,0.0205,0.0201,0.0169,0.0162,0.0152,0.0149,0.0112,0.0105,0.0078,0.0064,0.0058,0.009,0.0037,0.0019,0.002,0.0022,0.0128,0.0137,0.0146,0,0,0,0,0,0.0245,0.0253,0.0244,0.024,0.021,0.0202,0.0197,0.017,0.0152,0.016,0.0131,0.0106,0.0069,0.0063,0.0055,0.0088,0.0018,0.002,0.0021,0.0124,0.0136,0.0145,0,0,0,0,0,0,0.0265,0.0249,0.0238,0.0238,0.0228,0.0196,0.0196,0.0177,0.0159,0.0152,0.0114,0.0106,0.0112,0.0078,0.0072,0.0084,0.0041,0.0041,0.0121,0.0131,0.014,0.019,0.0035,0,0,0,0,0,0.0272,0.0279,0.0257,0.026,0.0257,0.0228,0.0219,0.0202,0.0181,0.0172,0.0147,0.0121,0.0113,0.0105,0.0087,0.009,0.0086,0.0105,0.0114,0.0122,0.0156,0.0172,0.0187,0.0028,0.0028,0.0028,0,0,0.0277,0.0272,0.0272,0.0265,0.0252,0.0269,0.0223,0.0217,0.0238,0.0168,0.0185,0.0151,0.012,0.013,0.013,0.0107,0.0163,0.0124,0.0132,0.0162,0.0176,0.0192,0.0206,0.003,0.003,0.0029,0,0,0.0305,0.0291,0.0312,0.0313,0.0303,0.0293,0.0297,0.0273,0.0271,0.0277,0.0239,0.0232,0.0205,0.0201,0.0194,0.0239,0.0211,0.022,0.0307,0.0322,0.0336,0.0349,0.0363,0.0376,0.0224,0.0224,0.0224,0,0.0313,0.0341,0.0316,0.0342,0.0357,0.0314,0.035,0.0343,0.032,0.0337,0.0299,0.0294,0.0252,0.0295,0.0302,0.0266,0.0264,0.0272,0.0338,0.035,0.036,0.0372,0.0385,0.0229,0.0229,0.0228,0.0228,0,0.0363,0.0388,0.0402,0.0431,0.0442,0.0463,0.0457,0.0467,0.0454,0.0451,0.0483,0.0432,0.044,0.0414,0.037,0.0427,0.0398,0.035,0.0319,0.0384,0.0391,0.0403,0.0237,0.0235,0.0234,0.0232,0,0,0.039,0.0431,0.0441,0.0482,0.0496,0.0517,0.0558,0.0597,0.0649,0.0618,0.0696,0.0654,0.0627,0.0618,0.0563,0.0562,0.0614,0.0491,0.0489,0.0523,0.0654,0.0574,0.0578,0.0575,0.0577,0.0579,0.0629,0,0.0447,0.0526,0.053,0.0617,0.0663,0.0656,0.0711,0.0736,0.0751,0.0809,0.0776,0.0817,0.0706,0.072,0.0703,0.0648,0.065,0.0606,0.0573,0.0573,0.0507,0.059,0.0548,0.0584,0.064,0.0642,0.0643,0,0.0511,0.0562,0.0656,0.0741,0.0762,0.0807,0.0905,0.0944,0.1,0.1016,0.1042,0.1017,0.1034,0.0923,0.0884,0.086,0.0776,0.0715,0.0714,0.0617,0.0514,0.0526,0.0602,0.0437,0.066,0.0659,0.0657,0,0.0574,0.0657,0.0746,0.0772,0.0851,0.0906,0.095,0.1013,0.1089,0.1163,0.1241,0.1223,0.1265,0.1158,0.1008,0.0963,0.0954,0.0876,0.0731,0.0724,0.0674,0.0657,0.0604,0.086,0.086,0.086,0.086,0,0.0649,0.072,0.0786,0.0838,0.0966,0.0985,0.112,0.1165,0.1266,0.1404,0.136,0.1481,0.1327,0.129,0.1107,0.0965,0.1033,0.0785,0.0746,0.0707,0.0693,0.0531,0.0426,0.0862,0.0862,0.0861,0.0861,0,0.0713,0.0749,0.0859,0.0957,0.1001,0.1093,0.1233,0.1335,0.1414,0.1604,0.1651,0.1712,0.1682,0.1484,0.134,0.1128,0.0856,0.0884,0.0844,0.0797,0.0492,0.0394,0.0297,0.0229,0.077,0.0768,0.0767,0,0.0756,0.0821,0.0949,0.1033,0.1087,0.1214,0.1319,0.1409,0.1537,0.1762,0.1884,0.1929,0.1994,0.1734,0.136,0.1049,0.0858,0.0785,0.0682,0.0504,0.0367,0.0288,0.0233,0.0664,0.0662,0.0661,0.066,0,0.0851,0.0891,0.0982,0.1141,0.1265,0.1413,0.157,0.1693,0.1844,0.2029,0.2275,0.2352,0.2119,0.1807,0.1336,0.1096,0.0648,0.0741,0.0584,0.0315,0.0205,0.011,0.0598,0.0645,0.0646,0.0648,0.0648,0.0649,0.0923,0.1004,0.1117,0.127,0.1419,0.1612,0.175,0.194,0.2182,0.2467,0.2529,0.2655,0.2172,0.1551,0.1211,0.054,0.0564,0.0328,0.0239,0.0189,0.0074,0.0523,0.0492,0.0492,0.0493,0.0493,0.0493,0,0.1011,0.11,0.1244,0.143,0.16,0.1661,0.1926,0.2087,0.2389,0.2616,0.2816,0.2603,0.2024,0.1415,0.0502,0.0088,-0.0036,-0.0116,-0.0222,-0.0241,0.0191,0.0133,-0.0009,-0.0009,-0.0009,-0.0009,-0.0009,-0.0008,0.1065,0.1202,0.1269,0.1547,0.1687,0.1926,0.2083,0.2345,0.2544,0.2792,0.2819,0.2811,0.2298,0.0812,-0.0162,-0.0362,-0.0573,-0.0669,-0.0742,-0.0458,-0.0423,-0.0389,-0.0466,-0.0732,-0.0733,-0.1135,-0.1139,-0.1142]}],[{"header":{"parameterUnit":"m.s-1","parameterCategory":2,"la1":30.2991,"la2":30.254,"lo1":-89.0895,"lo2":-89.0444,"dy":0.0017,"dx":0.0017,"nx":28,"ny":28,"refTime":"2024-07-19T21:00:00:Z","depth":"2","parameterNumber":2,"parameterNumberName":"U-component_of_CURRENTS"},"data":[0,0,0,0,0,0,0,0,0,0,0,0,0,0,0,0,0,0,0,0,0,0,0,0,0,0,0,0,0,0,0,0,0,0,0,0,0,0,0,0,0,0,0,0,0,0,0,0,0,0,0,0,0,0,0,0,0,0,0.3026,0.3026,0,0.3036,0.3037,0.3037,0.3024,0.3023,0.3023,0.3023,0.3051,0.3052,0.3054,0,0,0,0,0,0,0,0,0,0,0,0,0,0.3044,0.3044,0.3026,0.3026,0.3026,0.3036,0.3037,0.3037,0.3024,0.3023,0.3023,0.3022,0.3051,0.3052,0.3054,0,0,0,0,0,0,0,0,0,0,0,0,0,0.3043,0.3043,0.3026,0.3021,0.3021,0.3036,0.3037,0.3037,0.3024,0.3023,0.3023,0.3022,0.305,0.3052,0.3054,0.3078,0,0,0.3059,0.306,0,0,0,0,0,0,0,0,0.3043,0.3042,0.3022,0.3022,0.3021,0.3028,0.3054,0.3052,0.3024,0.3023,0.3023,0.3022,0.3046,0.3048,0.3051,0.308,0.3081,0.3059,0.3061,0.3061,0.3062,0,0,0,0,0,0,0,0.3043,0.3042,0.303,0.3022,0.3022,0.3036,0.3034,0.3053,0.3038,0.3023,0.3022,0.3024,0.3046,0.3049,0.3052,0.3081,0.3059,0.3061,0.3062,0.3063,0.32,0.3202,0,0,0,0,0,0,0.3041,0.3042,0.3029,0.303,0.3031,0.3036,0.3034,0.3027,0.3037,0.3038,0.3024,0.3023,0.3047,0.3049,0.3053,0.3176,0.3061,0.3063,0.3064,0.3197,0.32,0.3203,0,0,0,0,0,0,0.3041,0.3039,0.3029,0.3037,0.3037,0.3036,0.3028,0.3027,0.3045,0.3039,0.304,0.3044,0.3046,0.305,0.3085,0.3173,0.3064,0.3065,0.3194,0.3198,0.3202,0.3362,0,0,0,0,0,0,0.3041,0.3039,0.3045,0.3037,0.3036,0.3056,0.3028,0.3028,0.3046,0.3045,0.3056,0.3057,0.3046,0.3083,0.3087,0.3173,0.3067,0.3191,0.3196,0.32,0.3353,0.3371,0.3386,0,0,0,0,0,0.3042,0.3047,0.3044,0.3044,0.304,0.3058,0.306,0.3056,0.3048,0.3068,0.3071,0.3057,0.3117,0.3086,0.309,0.318,0.3189,0.3195,0.32,0.3346,0.3367,0.3385,0,0,0,0,0,0,0.306,0.3046,0.3043,0.3044,0.306,0.3056,0.3074,0.3072,0.309,0.3091,0.308,0.3083,0.3152,0.3133,0.3099,0.323,0.3155,0.3162,0.3265,0.3285,0.3301,0.3317,0.3068,0,0,0,0,0,0.3067,0.3066,0.3065,0.3072,0.3081,0.3084,0.3094,0.3094,0.3102,0.3109,0.3112,0.313,0.3179,0.3202,0.322,0.3287,0.3297,0.3348,0.3364,0.3378,0.3394,0.3461,0.3486,0.3222,0.3222,0.3222,0,0,0.3075,0.307,0.307,0.3078,0.3088,0.312,0.3089,0.3113,0.3158,0.3112,0.3169,0.3182,0.3205,0.3284,0.3315,0.3282,0.3468,0.3385,0.3398,0.3406,0.347,0.3496,0.3519,0.3226,0.3225,0.3225,0,0,0.3096,0.3093,0.3103,0.3124,0.3145,0.3155,0.3169,0.3177,0.3204,0.325,0.3252,0.3308,0.3345,0.34,0.3431,0.3545,0.3545,0.3559,0.3668,0.3735,0.3758,0.3777,0.3866,0.3892,0.3575,0.3575,0.3575,0,0.3113,0.312,0.3115,0.3143,0.3174,0.3178,0.322,0.3256,0.3277,0.3317,0.3283,0.3393,0.341,0.3551,0.3602,0.3589,0.3625,0.3598,0.3759,0.3778,0.3796,0.3881,0.3908,0.3584,0.3583,0.3582,0.3581,0,0.3143,0.3163,0.3179,0.3217,0.3255,0.3291,0.3338,0.3377,0.3399,0.3435,0.3547,0.3572,0.3636,0.3676,0.3682,0.3843,0.3832,0.3768,0.3714,0.3833,0.3914,0.394,0.3596,0.3593,0.359,0.3588,0,0,0.3137,0.3189,0.3195,0.3233,0.3298,0.333,0.3423,0.3509,0.357,0.3622,0.3726,0.3834,0.3843,0.388,0.3908,0.3987,0.4166,0.395,0.395,0.4047,0.4349,0.4129,0.4135,0.4135,0.4139,0.4142,0.4371,0,0.3167,0.3226,0.3253,0.3339,0.338,0.3434,0.3514,0.3599,0.3662,0.3758,0.3851,0.396,0.3929,0.3991,0.4064,0.4144,0.4234,0.4112,0.421,0.4213,0.401,0.4156,0.3822,0.3977,0.4395,0.4399,0.4402,0,0.3179,0.3223,0.3303,0.3396,0.3421,0.3485,0.3612,0.369,0.3836,0.3884,0.4004,0.4073,0.4261,0.418,0.4381,0.4308,0.4349,0.4388,0.4396,0.4146,0.4039,0.3916,0.4006,0.4444,0.4441,0.4438,0.4435,0,0.3161,0.3255,0.3324,0.3359,0.3467,0.3532,0.3607,0.3733,0.3822,0.4006,0.4092,0.4256,0.4368,0.4459,0.4536,0.4493,0.4712,0.4648,0.4495,0.4482,0.4189,0.4139,0.4773,0.4772,0.4772,0.4771,0.477,0,0.3169,0.3227,0.3325,0.3359,0.3456,0.3546,0.3658,0.3742,0.3902,0.4026,0.4175,0.4293,0.444,0.457,0.4615,0.4632,0.4773,0.4552,0.4528,0.4235,0.4189,0.4559,0.4532,0.478,0.4778,0.4776,0.4775,0,0.3142,0.3202,0.3287,0.3406,0.3443,0.3529,0.3684,0.3747,0.3921,0.4098,0.4192,0.439,0.4531,0.4636,0.4787,0.4709,0.4767,0.4723,0.4375,0.4302,0.4492,0.447,0.4627,0.4622,0.4617,0.4613,0.4609,0,0.3134,0.316,0.3292,0.3331,0.3393,0.3513,0.3556,0.3731,0.3817,0.4134,0.4211,0.4435,0.45,0.4625,0.4564,0.4596,0.4684,0.4262,0.4084,0.4518,0.448,0.4466,0.4451,0.3813,0.3804,0.3796,0.3789,0,0.3089,0.3136,0.3196,0.3288,0.3357,0.3418,0.3529,0.3596,0.3816,0.3964,0.4145,0.4256,0.4366,0.4192,0.4185,0.4154,0.4225,0.4093,0.4686,0.3846,0.3751,0.3713,0.3726,0.3719,0.3726,0.3731,0.3735,0.3738,0.3048,0.309,0.3152,0.3234,0.3287,0.33,0.3298,0.3404,0.3509,0.3668,0.3885,0.3905,0.3941,0.3724,0.3616,0.3531,0.3812,0.3641,0.3666,0.37,0.3509,0.3403,0.3276,0.328,0.3284,0.3287,0.329,0,0.2984,0.304,0.3077,0.317,0.314,0.3219,0.3235,0.3178,0.3196,0.3355,0.3437,0.3176,0.3058,0.3115,0.2879,0.2845,0.2844,0.2719,0.2702,0.2775,0.2839,0.2603,0.2131,0.2127,0.2123,0.212,0,0,0.297,0.2968,0.2978,0.2949,0.3008,0.2925,0.2873,0.2805,0.2822,0.2744,0.2733,0.2932,0.3048,0.2558,0.2477,0.2269,0.2507,0.2178,0.3117,0.3175,0.3234,0.3387,0.3106,0,0,0,0,0]},{"header":{"parameterUnit":"m.s-1","parameterCategory":2,"la1":30.2991,"la2":30.254,"lo1":-89.0895,"lo2":-89.0444,"dy":0.0017,"dx":0.0017,"nx":28,"ny":28,"refTime":"2024-07-19T21:00:00:Z","depth":"2","parameterNumber":3,"parameterNumberName":"V-component_of_CURRENTS"},"data":[0,0,0,0,0,0,0,0,0,0,0,0,0,0,0,0,0,0,0,0,0,0,0,0,0,0,0,0,0,0,0,0,0,0,0,0,0,0,0,0,0,0,0,0,0,0,0,0,0,0,0,0,0,0,0,0,0,0,0.0094,0.0093,0,0.0043,0.0042,0.0042,0.001,0.001,0.0009,0.0009,-0.0051,-0.0053,-0.0054,0,0,0,0,0,0,0,0,0,0,0,0,0,0.0123,0.0123,0.0094,0.0093,0.0093,0.0043,0.0042,0.0042,0.001,0.001,0.0009,0.0009,-0.0051,-0.0052,-0.0054,0,0,0,0,0,0,0,0,0,0,0,0,0,0.0095,0.0123,0.0094,0.007,0.0068,0.0043,0.0042,0.0042,0.001,0.001,0.0009,0.0009,-0.005,-0.0052,-0.0054,-0.0061,0,0,-0.0061,-0.0062,0,0,0,0,0,0,0,0,0.0097,0.0094,0.0075,0.0072,0.0069,0.0032,0.003,0.0007,0.001,0.0032,0.0009,0.0009,-0.0024,-0.0028,-0.0037,-0.0064,-0.0067,-0.0061,-0.0062,-0.0063,-0.0064,0,0,0,0,0,0,0,0.0099,0.0096,0.0074,0.0074,0.0071,0.0049,0.0045,0.0026,0.0006,0.003,0.0028,0.0022,-0.0026,-0.0035,-0.0039,-0.0068,-0.0061,-0.0063,-0.0064,-0.0065,-0.0089,-0.0088,0,0,0,0,0,0,0.0107,0.0098,0.0075,0.0072,0.0082,0.0048,0.0044,0.0045,0.0007,0.0001,0.0022,0.002,-0.0031,-0.0036,-0.0041,-0.0025,-0.0063,-0.0065,-0.0066,-0.009,-0.0089,-0.0088,0,0,0,0,0,0,0.0108,0.0106,0.0078,0.0083,0.0078,0.0049,0.0049,0.0044,0.0038,0.0001,-0.0006,0.0022,-0.0031,-0.0038,-0.0048,-0.0029,-0.0066,-0.0068,-0.009,-0.0089,-0.0089,-0.0011,0,0,0,0,0,0,0.0109,0.0107,0.011,0.0084,0.0078,0.0076,0.0049,0.0043,0.0035,0.0032,-0.0001,-0.0008,-0.0032,-0.0044,-0.005,-0.0032,-0.007,-0.0091,-0.009,-0.0089,-0.0014,-0.0007,-0.0001,0,0,0,0,0,0.0111,0.0118,0.0111,0.0108,0.0084,0.0076,0.0072,0.0049,0.0035,0.0041,0.0017,-0.0006,-0.0041,-0.0046,-0.0052,-0.0035,-0.0092,-0.009,-0.0089,-0.0017,-0.0009,-0.0001,0,0,0,0,0,0,0.0125,0.0115,0.0107,0.0108,0.0099,0.0071,0.0071,0.0055,0.004,0.0035,0.0001,-0.0006,-0.0009,-0.0033,-0.0038,-0.0039,-0.007,-0.007,-0.0013,-0.0005,0.0001,0.0036,-0.0072,0,0,0,0,0,0.0133,0.0141,0.0123,0.0126,0.0123,0.0099,0.0092,0.0077,0.0059,0.0052,0.0029,0.0005,-0.0009,-0.0016,-0.0037,-0.0035,-0.0054,-0.0029,-0.0023,-0.0017,0.0007,-0.001,-0.0002,-0.0084,-0.0084,-0.0084,0,0,0.0137,0.0134,0.0136,0.0131,0.012,0.0132,0.0095,0.0089,0.0104,0.0048,0.0058,0.0024,-0.0006,-0.0004,-0.0008,-0.002,-0.0006,-0.0015,-0.001,0.0011,-0.0008,0.0,0.0007,-0.0083,-0.0083,-0.0083,0,0,0.0159,0.0151,0.0169,0.017,0.0162,0.0152,0.0155,0.0134,0.0131,0.0134,0.0097,0.0082,0.0057,0.0045,0.0035,0.0065,0.0025,0.0049,0.0115,0.0099,0.0106,0.0112,0.0091,0.0095,0.0057,0.0057,0.0057,0,0.0164,0.019,0.0171,0.0193,0.0206,0.0169,0.0198,0.0189,0.0169,0.0176,0.015,0.0123,0.0089,0.0102,0.011,0.0083,0.0062,0.009,0.0109,0.0114,0.0119,0.0097,0.01,0.0061,0.0061,0.006,0.006,0,0.0205,0.0228,0.0239,0.0263,0.0272,0.0288,0.0281,0.0286,0.0274,0.0263,0.0267,0.0222,0.0213,0.0191,0.0161,0.0179,0.0149,0.0116,0.0094,0.0132,0.0105,0.0107,0.0067,0.0065,0.0064,0.0063,0,0,0.0218,0.0261,0.0268,0.0307,0.0316,0.0334,0.036,0.0382,0.0413,0.0378,0.0423,0.0376,0.0344,0.0331,0.0284,0.0266,0.0268,0.0212,0.0209,0.0201,0.0229,0.0161,0.0156,0.0234,0.0235,0.0236,0.0195,0,0.0262,0.0331,0.0338,0.0411,0.0451,0.0444,0.0482,0.0492,0.049,0.0519,0.0473,0.0491,0.04,0.0408,0.037,0.0308,0.0278,0.0283,0.0187,0.0184,0.0126,0.0157,0.0193,0.0156,0.0196,0.0197,0.0197,0,0.031,0.0357,0.0439,0.0514,0.0531,0.0569,0.0635,0.0663,0.0678,0.0679,0.067,0.0635,0.0621,0.0537,0.0441,0.0447,0.0349,0.0282,0.0278,0.0194,0.012,0.0124,0.0157,0.0199,0.0199,0.0198,0.0198,0,0.0356,0.0432,0.0511,0.0535,0.0604,0.0649,0.0686,0.0714,0.0772,0.0796,0.0846,0.0782,0.0795,0.0668,0.0515,0.0488,0.04,0.0344,0.0184,0.0177,0.0181,0.0173,0.0269,0.0269,0.0269,0.0269,0.0269,0,0.0416,0.0478,0.0546,0.0592,0.0705,0.0721,0.083,0.0853,0.0915,0.1021,0.0943,0.1011,0.083,0.0754,0.0579,0.0394,0.0444,0.0211,0.0169,0.0206,0.0201,0.0217,0.0211,0.0267,0.0268,0.0268,0.0268,0,0.0463,0.0502,0.0603,0.0693,0.0736,0.082,0.0948,0.1024,0.1065,0.121,0.1242,0.1205,0.1102,0.0889,0.0694,0.0498,0.0316,0.0226,0.0276,0.0239,0.0087,0.0086,0.0063,0.006,0.0058,0.0056,0.0055,0,0.0497,0.0551,0.068,0.0766,0.082,0.0942,0.1035,0.1103,0.1205,0.1343,0.1434,0.1378,0.1351,0.101,0.0674,0.0353,0.0298,0.0146,0.0088,0.0108,0.0069,0.0071,0.0073,0.0125,0.0124,0.0124,0.0123,0,0.0566,0.0605,0.0692,0.0861,0.0985,0.1134,0.1278,0.1379,0.1495,0.1607,0.1739,0.1729,0.1421,0.1097,0.0627,0.0405,0.0196,0.0118,0.0158,0.0157,0.0159,0.0123,0.0125,0.0117,0.0118,0.0118,0.0118,0.0119,0.0621,0.0697,0.0814,0.0976,0.1121,0.1315,0.1447,0.1598,0.1778,0.1937,0.192,0.1887,0.1531,0.092,0.0547,0.0147,0.0158,-0.0002,0.0004,0.001,0.001,0.0007,-0.0064,-0.0064,-0.0065,-0.0065,-0.0065,0,0.0705,0.0791,0.0929,0.113,0.1284,0.1364,0.1605,0.1728,0.1936,0.203,0.2089,0.1739,0.1376,0.0969,0.0386,0.0024,0.0017,-0.0106,-0.0023,-0.0014,-0.0008,-0.0006,-0.0086,-0.0087,-0.0088,-0.0089,0,0,0.0762,0.09,0.0963,0.1229,0.137,0.1602,0.1744,0.1925,0.2033,0.2086,0.2045,0.194,0.1485,0.1045,0.0575,0.0252,0.0195,0.0176,0.0231,0.0393,0.0404,0.0088,0.0103,0,0,0,0,0]}],[{"header":{"parameterUnit":"m.s-1","parameterCategory":2,"la1":30.2991,"la2":30.254,"lo1":-89.0895,"lo2":-89.0444,"dy":0.0017,"dx":0.0017,"nx":28,"ny":28,"refTime":"2024-07-19T21:00:00:Z","depth":"4","parameterNumber":2,"parameterNumberName":"U-component_of_CURRENTS"},"data":[0,0,0,0,0,0,0,0,0,0,0,0,0,0,0,0,0,0,0,0,0,0,0,0,0,0,0,0,0,0,0,0,0,0,0,0,0,0,0,0,0,0,0,0,0,0,0,0,0,0,0,0,0,0,0,0,0,0,0.1961,0.1961,0,0.2003,0.2003,0.2003,0.2056,0.2058,0.2059,0.206,0.2106,0.2107,0.2107,0,0,0,0,0,0,0,0,0,0,0,0,0,0.1898,0.1898,0.1961,0.1961,0.1962,0.2003,0.2003,0.2003,0.2056,0.2058,0.2059,0.2061,0.2106,0.2106,0.2107,0,0,0,0,0,0,0,0,0,0,0,0,0,0.1927,0.1899,0.196,0.1997,0.2001,0.2003,0.2003,0.2003,0.2056,0.2058,0.206,0.2061,0.2106,0.2106,0.2107,0.2069,0,0,0.2107,0.2107,0,0,0,0,0,0,0,0,0.1925,0.1928,0.1991,0.1995,0.1999,0.203,0.1998,0.2027,0.2055,0.203,0.206,0.2062,0.2083,0.2085,0.2082,0.2072,0.2074,0.2107,0.2107,0.2107,0.2107,0,0,0,0,0,0,0,0.1923,0.1927,0.1973,0.1992,0.1997,0.2002,0.2008,0.2003,0.2042,0.2033,0.2038,0.2049,0.2085,0.2082,0.2084,0.2074,0.2107,0.2107,0.2107,0.2107,0.2183,0.2185,0,0,0,0,0,0,0.1926,0.1925,0.1972,0.1975,0.1971,0.2002,0.2008,0.2015,0.2042,0.205,0.2047,0.2051,0.2081,0.2084,0.2086,0.2163,0.2107,0.2107,0.2107,0.2181,0.2184,0.2186,0,0,0,0,0,0,0.1924,0.1929,0.197,0.1955,0.1961,0.2002,0.2008,0.2015,0.2058,0.2054,0.2061,0.209,0.2083,0.2086,0.2125,0.2161,0.2107,0.2107,0.2179,0.2182,0.2185,0.224,0,0,0,0,0,0,0.1922,0.1928,0.1954,0.1955,0.1962,0.2001,0.2007,0.2014,0.2061,0.2068,0.2092,0.2096,0.2084,0.2125,0.2125,0.216,0.2107,0.2177,0.218,0.2184,0.2236,0.2245,0.2252,0,0,0,0,0,0.192,0.194,0.1955,0.1962,0.1989,0.2002,0.2007,0.2038,0.2062,0.2084,0.2107,0.2097,0.2149,0.2126,0.2126,0.2162,0.2175,0.2179,0.2184,0.2232,0.2243,0.2252,0,0,0,0,0,0,0.1927,0.1948,0.1964,0.1992,0.2013,0.2014,0.2045,0.2061,0.2095,0.2116,0.2112,0.2117,0.2167,0.2158,0.2133,0.2198,0.2164,0.2169,0.2201,0.2211,0.2219,0.2244,0.2107,0,0,0,0,0,0.194,0.1966,0.1979,0.2008,0.2022,0.2041,0.206,0.2079,0.2099,0.2119,0.2134,0.2156,0.2175,0.2191,0.2202,0.2228,0.2247,0.2256,0.2264,0.2271,0.2293,0.2359,0.2375,0.22,0.22,0.22,0,0,0.1952,0.1969,0.1986,0.2013,0.2033,0.2049,0.2058,0.2098,0.2121,0.2115,0.2167,0.2185,0.219,0.2227,0.2249,0.2229,0.2329,0.2276,0.2282,0.2301,0.2365,0.2382,0.2398,0.2203,0.2203,0.2202,0,0,0.197,0.2005,0.2026,0.2045,0.2084,0.209,0.2112,0.2136,0.2166,0.2206,0.2216,0.2265,0.2283,0.23,0.2307,0.2368,0.2372,0.2375,0.2432,0.2496,0.2511,0.2524,0.2561,0.2577,0.2377,0.2377,0.2377,0,0.1989,0.2007,0.2036,0.2056,0.2077,0.2112,0.2131,0.2157,0.2196,0.2226,0.2239,0.2311,0.2319,0.2366,0.2398,0.2387,0.2419,0.2389,0.2507,0.2521,0.2534,0.2568,0.2585,0.238,0.238,0.238,0.2379,0,0.2,0.2032,0.2048,0.2082,0.211,0.2136,0.2169,0.2214,0.2258,0.2285,0.2364,0.2387,0.2435,0.2446,0.2444,0.2537,0.2528,0.251,0.248,0.2555,0.2585,0.2603,0.2385,0.2384,0.2383,0.2382,0,0,0.1977,0.2043,0.205,0.2072,0.2126,0.2141,0.22,0.2249,0.2296,0.2361,0.2428,0.2486,0.2528,0.2542,0.2552,0.2613,0.2728,0.2615,0.2617,0.2647,0.2868,0.2665,0.2663,0.2738,0.2742,0.2745,0.2849,0,0.1973,0.201,0.2047,0.2087,0.2104,0.2164,0.2211,0.2273,0.2331,0.2405,0.2476,0.2546,0.2552,0.2597,0.2662,0.273,0.2779,0.2702,0.2795,0.2798,0.2605,0.2678,0.2756,0.2861,0.2865,0.2868,0.287,0,0.1953,0.198,0.202,0.2088,0.2105,0.2148,0.2234,0.2283,0.2396,0.2448,0.2544,0.2602,0.273,0.2711,0.2872,0.2831,0.2862,0.2895,0.2899,0.2706,0.2626,0.2775,0.29,0.2898,0.2896,0.2894,0.2892,0,0.1892,0.1956,0.1989,0.201,0.2093,0.2147,0.2212,0.2313,0.2364,0.2503,0.2572,0.2698,0.2804,0.2884,0.2974,0.2948,0.3127,0.3084,0.2916,0.2902,0.3029,0.3013,0.3173,0.3173,0.3173,0.3172,0.3172,0,0.1843,0.1864,0.1976,0.1989,0.2043,0.2133,0.2208,0.2285,0.2409,0.2479,0.2612,0.2693,0.2866,0.2977,0.3017,0.3029,0.3165,0.2946,0.2923,0.3047,0.3032,0.304,0.3023,0.3176,0.3175,0.3175,0.3174,0,0.174,0.182,0.1851,0.1965,0.2015,0.2057,0.2204,0.2243,0.2397,0.25,0.2563,0.2754,0.2913,0.3023,0.3167,0.3074,0.3102,0.3053,0.3189,0.3169,0.2821,0.2806,0.2883,0.2877,0.2872,0.2868,0.2864,0,0.1678,0.1691,0.1814,0.1851,0.1908,0.2003,0.2058,0.2214,0.227,0.2509,0.2551,0.2768,0.2872,0.2925,0.3046,0.3086,0.3037,0.3,0.2898,0.2825,0.2797,0.279,0.2782,0.2856,0.2855,0.2853,0.2852,0,0.1541,0.1606,0.1642,0.1736,0.1808,0.1849,0.1971,0.1999,0.2185,0.2356,0.2479,0.2557,0.2719,0.2825,0.287,0.2885,0.3003,0.2945,0.2954,0.2858,0.2793,0.2768,0.2767,0.2834,0.2836,0.2838,0.2839,0,0.145,0.1437,0.153,0.1592,0.1676,0.1689,0.1757,0.1858,0.1945,0.2227,0.2271,0.2501,0.2707,0.2722,0.2771,0.2771,0.272,0.2588,0.2615,0.2636,0.2503,0.238,0.2292,0,0,0,0,0,0.1353,0.1337,0.1382,0.144,0.1516,0.1578,0.1695,0.1771,0.1979,0.2002,0.2131,0.2266,0.2365,0.249,0.2444,0.2641,0.2712,0.2567,0.2569,0.2734,0.2755,0.2618,0,0,0,0,0,0,0.1295,0.1315,0.133,0.1314,0.1338,0.1393,0.1462,0.1587,0.1629,0.1861,0.1951,0.2113,0.227,0.2394,0.2408,0.2436,0.2377,0.271,0.2702,0.2722,0.2741,0.2758,0.2625,0,0,0,0,0]},{"header":{"parameterUnit":"m.s-1","parameterCategory":2,"la1":30.2991,"la2":30.254,"lo1":-89.0895,"lo2":-89.0444,"dy":0.0017,"dx":0.0017,"nx":28,"ny":28,"refTime":"2024-07-19T21:00:00:Z","depth":"4","parameterNumber":3,"parameterNumberName":"V-component_of_CURRENTS"},"data":[0,0,0,0,0,0,0,0,0,0,0,0,0,0,0,0,0,0,0,0,0,0,0,0,0,0,0,0,0,0,0,0,0,0,0,0,0,0,0,0,0,0,0,0,0,0,0,0,0,0,0,0,0,0,0,0,0,0,0.006,0.006,0,0.003,0.003,0.0029,0.0007,0.0007,0.0007,0.0006,-0.0028,-0.0029,-0.003,0,0,0,0,0,0,0,0,0,0,0,0,0,0.0076,0.0076,0.006,0.006,0.0059,0.003,0.003,0.0029,0.0007,0.0007,0.0007,0.0006,-0.0028,-0.0029,-0.003,0,0,0,0,0,0,0,0,0,0,0,0,0,0.006,0.0076,0.006,0.0044,0.0043,0.003,0.003,0.0029,0.0007,0.0007,0.0006,0.0006,-0.0028,-0.0029,-0.003,-0.0029,0,0,-0.0033,-0.0033,0,0,0,0,0,0,0,0,0.0061,0.006,0.0047,0.0045,0.0043,0.0021,0.0022,0.0009,0.0007,0.0021,0.0006,0.0006,-0.0012,-0.0014,-0.0019,-0.0031,-0.0032,-0.0033,-0.0034,-0.0034,-0.0034,0,0,0,0,0,0,0,0.0062,0.0061,0.0049,0.0047,0.0044,0.0031,0.0029,0.002,0.0007,0.002,0.0018,0.0014,-0.0013,-0.0018,-0.002,-0.0033,-0.0033,-0.0034,-0.0035,-0.0035,-0.0038,-0.0038,0,0,0,0,0,0,0.0067,0.0062,0.005,0.0048,0.0051,0.0031,0.0028,0.0029,0.0007,0.0004,0.0014,0.0013,-0.0016,-0.0018,-0.0021,-0.0004,-0.0034,-0.0035,-0.0036,-0.0039,-0.0038,-0.0037,0,0,0,0,0,0,0.0067,0.0066,0.0051,0.0053,0.005,0.0031,0.0032,0.0029,0.0026,0.0003,-0.0001,0.0015,-0.0016,-0.0019,-0.002,-0.0007,-0.0036,-0.0037,-0.0039,-0.0038,-0.0038,0.0018,0,0,0,0,0,0,0.0068,0.0067,0.007,0.0054,0.005,0.0052,0.0032,0.0028,0.0023,0.0021,0.0002,-0.0002,-0.0016,-0.0018,-0.0021,-0.0009,-0.0037,-0.004,-0.0039,-0.0038,0.0015,0.002,0.0025,0,0,0,0,0,0.0069,0.0075,0.0071,0.0069,0.0056,0.0053,0.005,0.0035,0.0024,0.0029,0.0017,-0.0001,-0.0014,-0.0018,-0.0022,-0.0009,-0.004,-0.0039,-0.0038,0.0013,0.0019,0.0025,0,0,0,0,0,0,0.0079,0.0073,0.0068,0.0071,0.0066,0.0049,0.005,0.0039,0.0033,0.0029,0.0008,0.0004,0.0006,-0.0008,-0.0013,-0.0008,-0.0031,-0.003,0.0009,0.0015,0.0019,0.0033,-0.0038,0,0,0,0,0,0.0085,0.0092,0.0081,0.0084,0.0083,0.0068,0.0064,0.0055,0.0045,0.0041,0.0029,0.0015,0.0008,0.0007,-0.0005,0.0002,-0.0031,0.0006,0.0011,0.0015,0.0024,-0.0014,-0.0012,-0.0033,-0.0033,-0.0033,0,0,0.0088,0.0087,0.0089,0.0088,0.0082,0.0093,0.0065,0.0063,0.0077,0.0039,0.0052,0.003,0.0012,0.0018,0.0018,0.0009,0.0003,0.0017,0.0021,0.0027,-0.0013,-0.0011,-0.0009,-0.0032,-0.0033,-0.0033,0,0,0.0105,0.01,0.0114,0.0117,0.0114,0.0109,0.0111,0.0099,0.0099,0.0107,0.0081,0.007,0.0063,0.0053,0.0047,0.0072,0.0026,0.0065,0.0105,0.0068,0.0069,0.007,0.0023,0.002,0.0071,0.0071,0.0072,0,0.0108,0.013,0.0117,0.0135,0.0147,0.0121,0.0145,0.0142,0.0132,0.0137,0.0121,0.0101,0.0083,0.0088,0.0097,0.0084,0.0048,0.0086,0.0074,0.0074,0.0074,0.0026,0.0021,0.0074,0.0074,0.0074,0.0073,0,0.014,0.016,0.0169,0.0191,0.02,0.0214,0.0212,0.0218,0.0211,0.0203,0.0202,0.0171,0.0162,0.015,0.0134,0.0128,0.0097,0.008,0.006,0.0079,0.0027,0.0021,0.0078,0.0077,0.0076,0.0076,0,0,0.0147,0.0186,0.0191,0.0224,0.0234,0.0251,0.0273,0.029,0.031,0.0285,0.0303,0.0278,0.0247,0.0238,0.0204,0.0172,0.0137,0.0132,0.0128,0.0087,0.0042,0.0039,0.0031,0.0113,0.0112,0.0112,0.0003,0,0.018,0.0236,0.0244,0.0306,0.0339,0.0337,0.0367,0.0376,0.0371,0.0378,0.0334,0.0334,0.0285,0.0281,0.024,0.0167,0.0125,0.0167,0.0029,0.0025,0.002,0.0026,0.011,-0.0002,-0.0003,-0.0004,-0.0005,0,0.0214,0.0254,0.0321,0.0387,0.0401,0.0434,0.0482,0.0506,0.0498,0.0492,0.0466,0.0422,0.038,0.0333,0.0211,0.0237,0.0148,0.008,0.0074,0.005,0.0011,-0.0024,-0.0017,-0.0016,-0.0015,-0.0014,-0.0014,0,0.0245,0.0311,0.0376,0.0397,0.0458,0.0495,0.0528,0.0542,0.058,0.0563,0.0572,0.0498,0.0476,0.0354,0.0212,0.0211,0.006,0.0042,-0.0052,-0.0055,-0.0045,-0.0044,-0.0052,-0.0052,-0.0052,-0.0051,-0.0051,0,0.0286,0.0339,0.0402,0.0441,0.0535,0.0551,0.0633,0.065,0.0671,0.0716,0.0637,0.0636,0.048,0.0373,0.0229,0.007,0.007,-0.0044,-0.0078,-0.002,-0.0016,-0.005,-0.0048,-0.0055,-0.0055,-0.0054,-0.0053,0,0.0313,0.0351,0.0435,0.0516,0.0557,0.0624,0.0724,0.077,0.0779,0.0829,0.083,0.0747,0.0617,0.0436,0.0238,0.0113,-0.0052,-0.0115,-0.0047,-0.0076,-0.0149,-0.0143,-0.0217,-0.0218,-0.0219,-0.022,-0.022,0,0.0334,0.038,0.0496,0.0563,0.061,0.071,0.0781,0.0829,0.088,0.0894,0.0918,0.0816,0.0734,0.0452,0.0252,-0.0026,-0.0069,-0.0173,-0.0153,-0.0138,-0.0164,-0.0157,-0.015,-0.0221,-0.0222,-0.0222,-0.0222,0,0.038,0.0416,0.0486,0.0617,0.0715,0.0828,0.0928,0.0973,0.102,0.1025,0.0999,0.0852,0.0704,0.0476,0.0256,0.0052,-0.0112,-0.0182,-0.0181,-0.0163,-0.0144,-0.0168,-0.016,-0.0225,-0.0224,-0.0224,-0.0224,0,0.0414,0.0467,0.0556,0.0673,0.0795,0.091,0.0963,0.1024,0.108,0.1085,0.107,0.09,0.0806,0.0515,0.0308,0.0114,0.0068,-0.0014,-0.0023,-0.0022,0.0065,0.0119,0.0094,0,0,0,0,0,0.0449,0.0509,0.0608,0.0736,0.0846,0.0926,0.1047,0.1082,0.112,0.1118,0.1102,0.0962,0.0679,0.0552,0.0363,0.0283,0.0021,0.005,-0.0081,-0.024,-0.0237,-0.0168,0,0,0,0,0,0,0.0476,0.0566,0.0606,0.0759,0.0847,0.0985,0.1065,0.1097,0.1099,0.11,0.0963,0.0891,0.0625,0.0791,0.0352,0.0293,0.0177,-0.0078,-0.0083,-0.0241,-0.0239,-0.0236,-0.0164,0,0,0,0,0]}]]